Henderson, KY

6:02 PM CDT on July 16, 2019 (GMT -0500)
Henderson City-County

Weather History for KEHR - May, 2019

Change the Weather History Date:

Saturday, May 25, 2019

  Actual Average Record
Temperature  
Mean Temperature 81 °F -  
Max Temperature 90 °F 79 °F 93 °F (2012)
Min Temperature 72 °F 58 °F 42 °F (1934)
Cooling Degree Days 16    
Growing Degree Days 31 (Base 50)    
Moisture  
Dew Point 67 °F    
Average Humidity 66    
Maximum Humidity 91    
Minimum Humidity 45    
Precipitation  
Precipitation 0.00 in - - ()
Sea Level Pressure  
Sea Level Pressure 30.05 in    
Wind  
Wind Speed 10 mph (SW)    
Max Wind Speed 25 mph    
Max Gust Speed 29 mph    
Visibility 10 miles    
Events      
Averages and records for this station are not official NWS values.
T = Trace of Precipitation, MM = Missing Value Source: NWS Daily Summary

Daily Weather History Graph

Daily Weather History Graph

Search for Another Location

Airport or City:

Astronomy

May. 25, 2019 Rise Set
Actual Time 5:33 AM CDT 8:01 PM CDT
Civil Twilight 5:03 AM CDT 8:32 PM CDT
Nautical Twilight 4:26 AM CDT 9:09 PM CDT
Astronomical Twilight 3:44 AM CDT 9:51 PM CDT
Moon 1:03 AM CDT (5/25) 11:31 AM CDT (5/25)
Length of Visible Light 15h 28m
Length of Day
14h 28m
Waning Gibbous, 59% of the Moon is Illuminated
May 25
Waning Gibbous
May 26
Last Quarter
Jun 3
New
Jun 10
First Quarter
Jun 17
Full

Hourly Weather History & Observations

Time (CDT) Temp. Heat Index Dew Point Humidity Pressure Visibility Wind Dir Wind Speed Gust Speed Precip Events Conditions
12:56 AM 73.9 °F - 66.9 °F 79% 30.05 in 10.0 mi SW 6.9 mph - N/A   Clear
1:56 AM 73.0 °F - 68.0 °F 84% 30.04 in 10.0 mi SW 6.9 mph - N/A   Clear
2:56 AM 72.0 °F - 68.0 °F 87% 30.04 in 10.0 mi SSW 6.9 mph - N/A   Clear
3:56 AM 72.0 °F - 68.0 °F 87% 30.03 in 10.0 mi SSW 5.8 mph - N/A   Clear
4:56 AM 72.0 °F - 69.1 °F 91% 30.03 in 10.0 mi SSW 8.1 mph - N/A   Clear
5:56 AM 72.0 °F - 68.0 °F 87% 30.05 in 10.0 mi SSW 6.9 mph - N/A   Clear
6:56 AM 73.0 °F - 68.0 °F 84% 30.07 in 10.0 mi SSW 9.2 mph - N/A   Clear
7:56 AM 75.9 °F - 68.0 °F 76% 30.07 in 10.0 mi SSW 8.1 mph - N/A   Clear
8:56 AM 80.1 °F 82.7 °F 68.0 °F 67% 30.06 in 10.0 mi SSW 12.7 mph - N/A   Clear
9:56 AM 84.0 °F 86.5 °F 66.9 °F 56% 30.06 in 10.0 mi SW 15.0 mph - N/A   Clear
10:56 AM 86.0 °F 86.8 °F 63.0 °F 46% 30.07 in 10.0 mi SW 25.3 mph 28.8 mph N/A   Clear
11:56 AM 87.1 °F 89.2 °F 66.0 °F 49% 30.09 in 10.0 mi SW 13.8 mph 25.3 mph N/A   Partly Cloudy
12:56 PM 88.0 °F 90.7 °F 66.9 °F 49% 30.07 in 10.0 mi SW 19.6 mph - N/A   Partly Cloudy
1:56 PM 88.0 °F 90.7 °F 66.9 °F 49% 30.06 in 10.0 mi WSW 17.3 mph - N/A   Partly Cloudy
2:56 PM 90.0 °F 92.4 °F 66.0 °F 45% 30.05 in 10.0 mi WSW 17.3 mph 25.3 mph N/A   Clear
3:56 PM 90.0 °F 92.4 °F 66.0 °F 45% 30.04 in 10.0 mi SW 13.8 mph 21.9 mph N/A   Clear
4:56 PM 89.1 °F 92.1 °F 66.9 °F 48% 30.04 in 10.0 mi SW 13.8 mph 24.2 mph N/A   Partly Cloudy
5:56 PM 88.0 °F 91.4 °F 68.0 °F 51% 30.04 in 10.0 mi SW 16.1 mph - N/A   Partly Cloudy
6:56 PM 87.1 °F 89.9 °F 66.9 °F 51% 30.04 in 10.0 mi SW 13.8 mph - N/A   Clear
8:56 PM 80.1 °F 82.7 °F 68.0 °F 67% 30.03 in 10.0 mi SSW 6.9 mph - N/A   Clear
9:56 PM 78.1 °F - 68.0 °F 71% 30.04 in 10.0 mi South 5.8 mph - N/A   Clear
10:56 PM 77.0 °F - 68.0 °F 74% 30.04 in 10.0 mi SSW 5.8 mph - N/A   Clear
11:56 PM 75.9 °F - 66.9 °F 74% 30.05 in 10.0 mi SW 3.5 mph - N/A   Clear